Location: Kalberh�ni
(46.4610°N, 7.2453°E)
Time: 11:56:25
(UTC+00:00)

Lacrosse 4 Rocket - Visible Passes

Search period start: 18 October 2021 00:00
Search period end: 28 October 2021 00:00
Orbit: 540 x 616 km, 68.0° (Epoch: 17 October)

Date Brightness Start Highest point End Pass type
(mag) Time Alt. Az. Time Alt. Az. Time Alt. Az.
18 Oct 2.4 18:41:52 10° NNW 18:45:01 35° NNE 18:45:01 35° NNE visible
18 Oct 4.6 20:20:53 10° NW 20:21:20 12° WNW 20:21:20 12° WNW visible
19 Oct 3.5 17:09:20 10° NNE 17:10:48 11° NE 17:12:17 10° NE visible
19 Oct 1.9 18:46:06 10° NNW 18:49:37 50° NNE 18:49:37 50° NNE visible
19 Oct 4.7 20:25:49 10° WNW 20:25:56 10° WNW 20:25:56 10° WNW visible
20 Oct 3.3 17:12:54 10° N 17:15:27 15° NE 17:18:00 10° ENE visible
20 Oct 1.5 18:50:25 10° NNW 18:54:19 73° NNW 18:54:19 73° NNW visible
21 Oct 2.9 17:16:49 10° N 17:20:02 20° NE 17:22:48 12° E visible
21 Oct 1.8 18:54:48 10° NW 18:59:04 61° WSW 18:59:08 61° WSW visible
22 Oct 2.5 17:20:53 10° NNW 17:24:35 27° NE 17:27:47 13° ESE visible
22 Oct 2.6 18:59:18 10° NW 19:03:22 40° WSW 19:04:08 36° SW visible
23 Oct 2.0 17:25:01 10° NNW 17:29:04 38° NE 17:33:00 11° ESE visible
23 Oct 3.4 19:03:57 10° NW 19:07:35 27° WSW 19:09:21 20° SSW visible
24 Oct 1.6 17:29:14 10° NNW 17:33:30 55° NE 17:37:48 10° SE visible
24 Oct 4.1 19:08:49 10° WNW 19:11:46 18° WSW 19:14:45 10° SSW visible
25 Oct 1.4 17:33:32 10° NNW 17:37:53 83° ENE 17:42:17 10° SSE visible
25 Oct 4.6 19:14:19 10° W 19:15:54 12° WSW 19:17:31 10° SW visible
26 Oct 1.9 17:37:54 10° NW 17:42:12 66° WSW 17:46:34 10° SSE visible
27 Oct 2.8 17:42:23 10° NW 17:46:29 43° WSW 17:50:40 10° S visible
